Hourly Data Report for January 21, 2022

BANCROFT AUTO
ONTARIO
Current Station Operator: ECCC - MSC

45°04'17.000" N
77°52'44.000" W
330.70 m
616I001
71294
WRK

Download Data

Hourly Data (January 2022)
Hourly Data Report for January 21, 2022
TIME
LST
Temp Definition
°C
Dew Point Definition
°C
Rel Hum Definition
%
Precip. Amount Definition
mm

Wind Dir Definition
10's deg

Wind Spd Definition
km/h
Visibility Definition
km
Stn Press Definition
kPa
Hmdx Definition


Wind Chill Definition


Weather Definition


00:00 -32.0 -34.8 76 0.0   0   99.27     LegendNANA
01:00 -32.6 -35.7 74 0.0   0   99.28     LegendNANA
02:00 -33.5 -36.4 75 0.0   0   99.30     LegendNANA
03:00 -34.4 -37.5 74 0.0   0   99.33     LegendNANA
04:00 -34.8 -37.9 74 0.0 0 1   99.34   -36 LegendNANA
05:00 -35.4 -38.5 73 0.0   0   99.38     LegendNANA
06:00 -36.4 -39.7 71 0.0   0   99.43     LegendNANA
07:00 -36.6 -40.0 71 0.0   0   99.51     LegendNANA
08:00 -36.7 -40.0 71 0.0   0   99.54     LegendNANA
09:00 -33.7 -36.9 73 0.0   0   99.60     LegendNANA
10:00 -26.4 -29.5 76 0.0   0   99.61     LegendNANA
11:00 -22.6 -27.6 64 0.0 7 2   99.64   -24 LegendNANA
12:00 -18.0 -25.2 53 0.0 6 4   99.55   -21 LegendNANA
13:00 -15.8 -24.9 45 0.0 2 3   99.48   -18 LegendNANA
14:00 -14.2 -23.8 44 0.0 6 4   99.43   -17 LegendNANA
15:00 -13.1 -23.8 40 0.0 8 5   99.41   -16 LegendNANA
16:00 -13.9 -23.2 45 0.0 21 2   99.41   -15 LegendNANA
17:00 -18.6 -23.6 65 0.0 21 2   99.42   -20 LegendNANA
18:00 -22.1 -24.9 78 0.0   0   99.42     LegendNANA
19:00 -24.3 -26.6 81 0.0   0   99.37     LegendNANA
20:00 -26.3 -28.6 81 0.0 0 1   99.36   -27 LegendNANA
21:00 -27.7 -30.4 78 0.0   0   99.34     LegendNANA
22:00 -29.9 -32.8 76 0.0   0   99.31     LegendNANA
23:00 -30.6 -33.4 76 0.0   0   99.25     LegendNANA

Notes on Data Quality.

Legend

  • E = Estimated
  • M = Missing
  • NA = Not Available*
  • [empty] = Indicates an unobserved value
Date modified: